W9RPM Weather Reports


time (UTC)temp
F
wind
direction
speed
knots
gust
knots
rain 1hr
in
rain 24hr
in
rain mn
in
humidity
%
barometer
mb
20260503081515 55 195 2.6 7.8 0.00 0.00 0.00 51 1010.5
20260503071512 55 212 3.5 7.8 0.00 0.00 0.00 48 1011.1
20260503054522 54 145 2.6 5.2 0.00 0.00 0.00 52 1011.8
20260503053053 54 142 2.6 7.0 0.00 0.00 0.00 51 1011.8
20260503051535 54 138 1.7 8.7 0.00 0.00 0.00 51 1012.0
20260503050019 54 142 2.6 7.0 0.00 0.00 0.00 51 1012.0
20260503044602 55 123 2.6 8.7 0.00 0.00 0.00 51 1012.0
20260503043030 55 136 1.7 6.1 0.00 0.00 0.00 52 1012.2
20260503041511 55 117 0.9 6.1 0.00 0.00 0.00 53 1012.2
20260503040052 55 149 2.6 7.8 0.00 0.00 0.00 53 1012.5
20260503034538 55 136 1.7 7.8 0.00 0.00 0.00 55 1012.6
20260503033013 55 146 3.5 7.0 0.00 0.00 0.00 58 1012.8
20260503031555 56 153 2.6 6.1 0.00 0.00 0.00 63 1013.0
20260503030035 56 155 1.7 4.3 0.00 0.00 0.00 60 1013.1
20260503024512 56 155 1.7 3.5 0.00 0.00 0.00 54 1013.1
20260503023055 57 150 0.9 3.5 0.00 0.00 0.00 56 1013.1
20260503021540 57 192 0.0 4.3 0.00 0.00 0.00 54 1013.2
20260503020025 57 186 0.9 3.5 0.00 0.00 0.00 47 1013.2
20260503014504 58 203 0.9 3.5 0.00 0.00 0.00 46 1013.2
20260503013043 59 170 0.9 4.3 0.00 0.00 0.00 45 1013.2